SP3VBV-2 Weather Reports


Display with metric or nautical units.
time (UTC)temp
F
wind
direction
speed
MPH
gust
MPH
rain 1hr
in
rain 24hr
in
rain mn
in
humidity
%
barometer
mb
20260504050203 59 0.0 0.0 0.00 0.00 0.00 49 1013.1
20260504045203 58 0.0 0.0 0.00 0.00 0.00 49 1012.9
20260504044203 58 0.0 0.0 0.00 0.00 0.00 49 1012.8
20260504043203 58 0.0 0.0 0.00 0.00 0.00 47 1012.7
20260504042205 58 0.0 0.0 0.00 0.00 0.00 47 1012.5
20260504041203 58 0.0 0.0 0.00 0.00 0.00 47 1012.5
20260504035202 57 0.0 0.0 0.00 0.00 0.00 47 1012.4
20260504034202 57 0.0 0.0 0.00 0.00 0.00 47 1012.4
20260504033202 58 0.0 0.0 0.00 0.00 0.00 45 1012.4
20260504032202 57 0.0 0.0 0.00 0.00 0.00 45 1012.4
20260504031202 58 0.0 0.0 0.00 0.00 0.00 45 1012.5
20260504030202 58 0.0 0.0 0.00 0.00 0.00 45 1012.4
20260504025202 58 0.0 0.0 0.00 0.00 0.00 45 1012.4
20260504024202 58 0.0 0.0 0.00 0.00 0.00 45 1012.4
20260504023202 58 0.0 0.0 0.00 0.00 0.00 44 1012.4
20260504022202 58 0.0 0.0 0.00 0.00 0.00 45 1012.4
20260504021202 58 0.0 0.0 0.00 0.00 0.00 45 1012.5
20260504015202 57 0.0 0.0 0.00 0.00 0.00 45 1012.6
20260504014202 58 0.0 0.0 0.00 0.00 0.00 45 1012.5
20260504013202 58 0.0 0.0 0.00 0.00 0.00 44 1012.6
20260504012202 58 0.0 0.0 0.00 0.00 0.00 45 1012.6
20260504011202 58 0.0 0.0 0.00 0.00 0.00 44 1012.6
20260504010202 58 0.0 0.0 0.00 0.00 0.00 44 1012.6
20260504005202 58 0.0 0.0 0.00 0.00 0.00 44 1012.5
20260504004202 58 0.0 0.0 0.00 0.00 0.00 45 1012.6
20260504003202 58 0.0 0.0 0.00 0.00 0.00 44 1012.6
20260504002202 58 0.0 0.0 0.00 0.00 0.00 44 1012.6
20260504001202 59 0.0 0.0 0.00 0.00 0.00 44 1012.7
20260504000204 59 0.0 0.0 0.00 0.00 0.00 43 1012.8
20260503235204 59 0.0 0.0 0.00 0.00 0.00 43 1012.9
20260503234203 60 0.0 0.0 0.00 0.00 0.00 42 1012.9
20260503233203 60 0.0 0.0 0.00 0.00 0.00 41 1012.9
20260503232202 61 0.0 0.0 0.00 0.00 0.00 41 1013.0
20260503231202 61 0.0 0.0 0.00 0.00 0.00 41 1013.1
20260503230202 61 0.0 0.0 0.00 0.00 0.00 41 1013.1
20260503225203 61 0.0 0.0 0.00 0.00 0.00 41 1013.2
20260503224202 61 0.0 0.0 0.00 0.00 0.00 41 1013.2
20260503223204 61 0.0 0.0 0.00 0.00 0.00 41 1013.2
20260503222304 62 0.0 0.0 0.00 0.00 0.00 41 1013.3
20260503221203 62 0.0 0.0 0.00 0.00 0.00 42 1013.3
20260503215201 63 0.0 0.0 0.00 0.00 0.00 42 1013.4
20260503214202 63 0.0 0.0 0.00 0.00 0.00 42 1013.4
20260503213201 63 0.0 0.0 0.00 0.00 0.00 42 1013.4
20260503212201 64 0.0 0.0 0.00 0.00 0.00 42 1013.5
20260503211201 64 0.0 0.0 0.00 0.00 0.00 42 1013.5
20260503210201 64 0.0 0.0 0.00 0.00 0.00 42 1013.4
20260503205202 64 0.0 0.0 0.00 0.00 0.00 42 1013.5
20260503204201 64 0.0 0.0 0.00 0.00 0.00 42 1013.5
20260503203201 64 0.0 0.0 0.00 0.00 0.00 42 1013.5
20260503202201 65 0.0 0.0 0.00 0.00 0.00 42 1013.4
20260503201207 65 0.0 0.0 0.00 0.00 0.00 42 1013.4
20260503200201 65 0.0 0.0 0.00 0.00 0.00 41 1013.4
20260503195201 65 0.0 0.0 0.00 0.00 0.00 41 1013.4
20260503194205 66 0.0 0.0 0.00 0.00 0.00 41 1013.5
20260503193201 66 0.0 0.0 0.00 0.00 0.00 42 1013.4
20260503192211 66 0.0 0.0 0.00 0.00 0.00 41 1013.4
20260503191203 67 0.0 0.0 0.00 0.00 0.00 40 1013.5
20260503190201 67 0.0 0.0 0.00 0.00 0.00 40 1013.3
20260503185201 67 0.0 0.0 0.00 0.00 0.00 40 1013.2
20260503184209 68 0.0 0.0 0.00 0.00 0.00 39 1013.3
20260503183201 68 0.0 0.0 0.00 0.00 0.00 39 1013.1
20260503182209 69 0.0 0.0 0.00 0.00 0.00 39 1013.1
20260503181201 69 0.0 0.0 0.00 0.00 0.00 38 1012.9
20260503180201 70 0.0 0.0 0.00 0.00 0.00 37 1013.0
20260503180153 71 0.0 0.0 0.00 0.00 0.00 36 1012.8
20260503174201 72 0.0 0.0 0.00 0.00 0.00 35 1012.8
20260503173201 72 0.0 0.0 0.00 0.00 0.00 35 1012.7
20260503172201 74 0.0 0.0 0.00 0.00 0.00 33 1012.8
20260503171202 75 0.0 0.0 0.00 0.00 0.00 32 1012.9
20260503170201 74 0.0 0.0 0.00 0.00 0.00 32 1012.8
20260503150207 78 0.0 0.0 0.00 0.00 0.00 29 1013.3
20260503140218 78 0.0 0.0 0.00 0.00 0.00 27 1013.8
20260503131201 77 0.0 0.0 0.00 0.00 0.00 28 1014.7
20260503130200 77 0.0 0.0 0.00 0.00 0.00 27 1014.7
20260503120200 77 0.0 0.0 0.00 0.00 0.00 31 1015.2
20260503110218 75 0.0 0.0 0.00 0.00 0.00 31 1015.8
20260503090152 70 0.0 0.0 0.00 0.00 0.00 39 1016.9
20260503080159 66 0.0 0.0 0.00 0.00 0.00 43 1017.0
20260503072406 63 0.0 0.0 0.00 0.00 0.00 48 1017.1
20260503072151 63 0.0 0.0 0.00 0.00 0.00 49 1016.9
20260503071151 62 0.0 0.0 0.00 0.00 0.00 49 1017.0
20260503070151 62 0.0 0.0 0.00 0.00 0.00 51 1016.8
20260503060151 57 0.0 0.0 0.00 0.00 0.00 59 1016.8
20260503054151 56 0.0 0.0 0.00 0.00 0.00 61 1016.9
20260503052237 55 0.0 0.0 0.00 0.00 0.00 60 1016.9